FW7564 Weather Reports


Display with metric or nautical units.
time (UTC)temp
F
wind
direction
speed
MPH
gust
MPH
rain 1hr
in
rain 24hr
in
rain mn
in
humidity
%
barometer
mb
20260507134659 57 203 14.0 29.0 0.00 0.00 0.01 10 1014.4
20260507134149 57 270 7.0 29.0 0.00 0.00 0.01 10 1014.3
20260507133643 57 270 14.0 23.0 0.00 0.00 0.01 10 1013.6
20260507133133 57 180 11.0 27.0 0.00 0.00 0.01 10 1013.7
20260507132623 57 248 9.0 27.0 0.00 0.00 0.01 10 1013.9
20260507132113 57 248 10.0 23.0 0.00 0.00 0.01 10 1013.6
20260507131603 56 248 10.0 21.0 0.00 0.00 0.01 10 1013.7
20260507131052 56 203 9.0 18.0 0.00 0.00 0.01 10 1013.7
20260507130542 56 270 10.0 18.0 0.00 0.00 0.01 10 1013.6
20260507125522 56 225 8.0 21.0 0.00 0.00 0.01 10 1013.5
20260507125011 56 203 11.0 25.0 0.00 0.00 0.01 10 1013.1
20260507124501 56 158 14.0 25.0 0.00 0.00 0.01 10 1013.4
20260507123952 55 203 8.0 22.0 0.00 0.00 0.01 10 1013.3
20260507123442 56 293 7.0 20.0 0.00 0.00 0.01 10 1014.0
20260507122932 56 270 7.0 20.0 0.00 0.00 0.01 10 1014.3
20260507121911 56 270 6.0 16.0 0.00 0.00 0.01 10 1014.2
20260507120850 56 180 2.0 23.0 0.00 0.00 0.01 10 1014.3
20260507120341 56 225 4.0 23.0 0.00 0.00 0.01 10 1014.2
20260507115831 56 203 10.0 21.0 0.00 0.00 0.01 10 1014.1
20260507115321 56 293 3.0 21.0 0.00 0.00 0.01 10 1013.9
20260507114812 56 248 9.0 17.0 0.00 0.00 0.01 10 1013.7
20260507114300 57 225 8.0 17.0 0.00 0.00 0.01 10 1013.3
20260507113750 57 225 9.0 21.0 0.00 0.00 0.01 10 1012.7
20260507113240 57 225 11.0 21.0 0.00 0.00 0.01 10 1012.2
20260507112731 57 225 5.0 20.0 0.00 0.00 0.01 10 1012.0
20260507112219 58 270 5.0 20.0 0.00 0.00 0.01 10 1012.4
20260507111709 58 225 9.0 18.0 0.00 0.00 0.01 10 1012.0
20260507111159 58 203 9.0 18.0 0.00 0.00 0.01 10 1011.9
20260507110649 58 225 9.0 21.0 0.00 0.00 0.01 10 1011.7
20260507110139 58 248 6.0 22.0 0.00 0.00 0.01 10 1011.7
20260507105629 58 270 7.0 22.0 0.00 0.00 0.01 10 1011.9
20260507104611 59 180 10.0 24.0 0.00 0.00 0.01 10 1011.5
20260507104058 59 180 11.0 20.0 0.00 0.00 0.01 10 1011.0
20260507103549 59 203 9.0 20.0 0.00 0.00 0.01 10 1011.4
20260507103045 59 135 8.0 24.0 0.00 0.00 0.01 10 1011.4
20260507102529 60 180 10.0 24.0 0.00 0.00 0.01 10 1010.9
20260507102018 60 248 8.0 22.0 0.00 0.00 0.01 10 1011.0
20260507101515 60 225 13.0 22.0 0.00 0.00 0.01 10 1010.9
20260507100448 61 203 8.0 17.0 0.00 0.00 0.01 10 1011.4
20260507095938 61 248 4.0 17.0 0.00 0.00 0.01 10 1012.0
20260507095430 61 225 6.0 15.0 0.00 0.00 0.01 10 1011.4
20260507094917 61 293 5.0 18.0 0.00 0.00 0.01 10 1011.1
20260507094404 61 180 4.0 20.0 0.00 0.00 0.01 10 1011.0
20260507093347 61 203 9.0 18.0 0.00 0.00 0.01 10 1010.8
20260507092837 60 225 4.0 18.0 0.00 0.00 0.01 10 1011.0
20260507091817 62 270 9.0 30.0 0.00 0.00 0.01 10 1011.0
20260507091306 62 248 7.0 30.0 0.00 0.00 0.01 10 1011.2
20260507090757 62 248 14.0 31.0 0.00 0.00 0.01 10 1011.2
20260507090246 62 203 9.0 31.0 0.00 0.00 0.01 10 1011.2
20260507085736 62 270 7.0 18.0 0.00 0.00 0.01 10 1011.5
20260507083656 61 180 11.0 21.0 0.00 0.00 0.01 10 1010.7
20260507083147 61 203 2.0 21.0 0.00 0.00 0.01 10 1010.5
20260507082636 61 225 5.0 20.0 0.00 0.00 0.01 10 1010.6
20260507082127 61 225 9.0 20.0 0.00 0.00 0.01 10 1010.5
20260507081616 60 225 6.0 17.0 0.00 0.00 0.01 10 1010.3
20260507080556 60 158 7.0 18.0 0.00 0.00 0.01 10 1009.9
20260507080046 60 135 11.0 18.0 0.00 0.00 0.01 10 1010.0
20260507075535 60 203 5.0 18.0 0.00 0.00 0.01 10 1010.3
20260507075025 61 158 4.0 24.0 0.00 0.00 0.01 10 1010.3
20260507074515 61 180 7.0 24.0 0.00 0.00 0.01 10 1010.6
20260507074005 61 248 11.0 23.0 0.00 0.00 0.01 10 1010.7
20260507072944 61 203 6.0 18.0 0.00 0.00 0.01 10 1010.8
20260507072435 61 248 5.0 20.0 0.00 0.00 0.01 10 1010.6
20260507071924 62 180 8.0 20.0 0.00 0.00 0.01 10 1010.5
20260507070151 62 225 9.0 0.0 0.00 0.00 0.01 10 1010.8
20260507065555 62 203 12.0 23.0 0.00 0.02 0.01 10 1010.6
20260507064535 63 225 11.0 27.0 0.00 0.02 0.01 10 1010.5
20260507064025 63 203 11.0 27.0 0.00 0.02 0.01 10 1011.0
20260507063004 63 203 10.0 25.0 0.00 0.02 0.01 10 1010.8
20260507062454 63 270 11.0 25.0 0.00 0.02 0.01 10 1010.7
20260507061945 63 248 8.0 24.0 0.00 0.02 0.01 10 1010.7
20260507061434 64 203 11.0 24.0 0.00 0.02 0.01 10 1010.7
20260507060925 64 270 4.0 21.0 0.00 0.02 0.01 10 1010.5
20260507060414 64 248 8.0 18.0 0.00 0.02 0.01 10 1010.3
20260507055904 64 180 8.0 16.0 0.00 0.02 0.01 10 1010.4
20260507055353 64 225 5.0 18.0 0.00 0.02 0.01 10 1010.4
20260507054844 65 225 10.0 20.0 0.00 0.02 0.01 10 1010.4
20260507054333 65 293 7.0 20.0 0.00 0.02 0.01 10 1010.3
20260507053823 65 203 7.0 27.0 0.00 0.02 0.01 10 1010.5
20260507053314 65 203 8.0 27.0 0.00 0.02 0.01 10 1010.6
20260507052803 65 248 10.0 15.0 0.00 0.02 0.01 10 1010.5
20260507052253 65 203 7.0 15.0 0.00 0.02 0.01 10 1010.5
20260507051746 65 225 4.0 15.0 0.00 0.02 0.01 10 1010.5
20260507051233 65 158 5.0 15.0 0.00 0.02 0.01 10 1010.5
20260507050723 65 203 8.0 15.0 0.00 0.02 0.01 10 1010.2
20260507050213 65 225 4.0 15.0 0.00 0.02 0.01 10 1010.1
20260507045703 66 315 7.0 16.0 0.01 0.02 0.01 10 1010.0
20260507045153 66 180 5.0 16.0 0.01 0.02 0.01 10 1009.9
20260507044642 66 248 4.0 13.0 0.01 0.02 0.01 10 1009.9
20260507044133 66 203 5.0 14.0 0.01 0.02 0.01 10 1010.1
20260507043623 66 203 4.0 16.0 0.01 0.02 0.01 10 1010.1
20260507043112 66 203 7.0 16.0 0.01 0.02 0.01 10 1009.6
20260507042602 66 225 8.0 16.0 0.01 0.02 0.01 10 1010.0
20260507041542 65 248 8.0 18.0 0.01 0.02 0.01 10 1009.6
20260507041031 66 158 9.0 18.0 0.01 0.02 0.01 10 1009.4
20260507040522 66 203 7.0 18.0 0.01 0.02 0.01 10 1010.1
20260507040011 67 113 10.0 18.0 0.01 0.02 0.01 10 1010.0
20260507035501 67 248 7.0 17.0 0.00 0.01 0.00 10 1009.6
20260507034952 67 248 4.0 15.0 0.00 0.01 0.00 10 1010.2
20260507034443 67 270 5.0 15.0 0.00 0.01 0.00 10 1009.2
20260507033932 67 248 8.0 15.0 0.00 0.01 0.00 10 1008.9
20260507033421 66 158 4.0 18.0 0.00 0.01 0.00 10 1009.4
20260507032912 67 203 5.0 18.0 0.00 0.01 0.00 10 1009.0
20260507032401 68 225 8.0 18.0 0.00 0.01 0.00 10 1008.7
20260507030831 68 203 7.0 17.0 0.00 0.01 0.00 10 1009.1
20260507030320 69 203 5.0 15.0 0.00 0.01 0.00 10 1009.1
20260507025810 69 203 7.0 16.0 0.00 0.01 0.01 10 1008.4
20260507025300 69 180 9.0 16.0 0.00 0.01 0.01 10 1008.0
20260507023730 69 203 8.0 20.0 0.00 0.01 0.01 10 1007.7
20260507023219 68 248 8.0 15.0 0.00 0.01 0.01 10 1007.4
20260507022710 68 225 4.0 9.0 0.00 0.01 0.01 10 1008.0
20260507022200 68 248 1.0 8.0 0.00 0.01 0.01 10 1007.6
20260507021649 68 225 3.0 7.0 0.00 0.01 0.01 10 1007.8
20260507021139 68 180 2.0 7.0 0.00 0.01 0.01 10 1008.1
20260507020629 69 248 2.0 13.0 0.00 0.01 0.01 10 1007.8
20260507020120 69 158 2.0 13.0 0.00 0.01 0.01 10 1008.0
20260507015609 68 158 4.0 8.0 0.00 0.01 0.01 10 1008.0
20260507015059 68 203 2.0 8.0 0.00 0.01 0.01 10 1008.1
20260507014548 67 225 1.0 4.0 0.00 0.01 0.01 10 1007.8
20260507013018 68 225 2.0 4.0 0.00 0.01 0.01 10 1008.0
20260507012509 68 225 1.0 6.0 0.00 0.01 0.01 10 1008.0
20260507011958 69 225 2.0 6.0 0.00 0.01 0.01 10 1008.1
20260507011448 69 270 2.0 6.0 0.00 0.01 0.01 10 1007.8
20260507010938 70 203 2.0 8.0 0.00 0.01 0.01 10 1007.7
20260507010427 70 158 2.0 8.0 0.00 0.01 0.01 10 1008.0
20260507005918 69 180 3.0 8.0 0.00 0.01 0.01 10 1007.7
20260507005407 70 158 3.0 8.0 0.00 0.01 0.01 10 1007.4
20260507004857 70 180 5.0 9.0 0.00 0.01 0.01 10 1007.4
20260507004348 70 158 2.0 9.0 0.00 0.01 0.01 10 1007.4
20260507003328 70 203 1.0 7.0 0.00 0.01 0.01 10 1007.5
20260507002816 69 203 2.0 7.0 0.00 0.01 0.01 10 1007.4
20260507002306 69 180 3.0 11.0 0.00 0.01 0.01 10 1007.4
20260507001757 69 225 2.0 11.0 0.00 0.01 0.01 10 1007.4
20260507000736 70 180 6.0 13.0 0.00 0.01 0.01 10 1006.9
20260507000227 70 203 6.0 13.0 0.00 0.01 0.01 10 1007.0
20260506235717 70 248 4.0 9.0 0.00 0.01 0.01 10 1007.0
20260506235206 69 180 4.0 9.0 0.00 0.01 0.01 10 1007.0
20260506234657 70 135 2.0 8.0 0.00 0.01 0.01 10 1006.7
20260506233636 70 203 3.0 9.0 0.00 0.01 0.01 10 1006.8
20260506233125 71 270 1.0 9.0 0.00 0.01 0.01 10 1006.3
20260506232616 70 180 2.0 8.0 0.00 0.01 0.01 10 1006.3
20260506232106 70 203 4.0 7.0 0.00 0.01 0.01 10 1006.2
20260506231555 70 248 2.0 7.0 0.00 0.01 0.01 10 1006.4
20260506231045 70 203 2.0 8.0 0.00 0.01 0.01 10 1006.2
20260506230024 71 203 2.0 6.0 0.00 0.01 0.01 10 1006.3
20260506225515 71 248 1.0 4.0 0.00 0.01 0.01 10 1006.1
20260506224455 71 293 2.0 2.0 0.00 0.01 0.01 10 1005.8
20260506223434 72 68 0.0 2.0 0.00 0.01 0.01 10 1005.3
20260506222924 71 338 0.0 2.0 0.00 0.01 0.01 10 1005.2
20260506222414 72 315 0.0 2.0 0.00 0.01 0.01 10 1005.1
20260506221904 73 225 1.0 2.0 0.00 0.01 0.01 10 1004.8
20260506221355 73 158 1.0 4.0 0.00 0.01 0.01 10 1004.9
20260506220334 73 135 1.0 4.0 0.00 0.01 0.01 10 1004.8
20260506215823 73 135 0.0 2.0 0.00 0.01 0.01 10 1004.3
20260506214803 74 135 1.0 4.0 0.00 0.01 0.01 10 1004.2
20260506214254 74 158 2.0 4.0 0.00 0.01 0.01 10 1004.1
20260506213744 74 135 1.0 2.0 0.00 0.01 0.01 10 1004.2
20260506212723 75 113 1.0 2.0 0.00 0.01 0.01 10 1003.8
20260506212212 76 135 0.0 2.0 0.00 0.01 0.01 10 1004.1
20260506211703 78 113 2.0 2.0 0.00 0.01 0.01 10 1003.4
20260506210643 79 90 0.0 6.0 0.00 0.01 0.01 10 1003.5
20260506210132 80 90 3.0 6.0 0.00 0.01 0.01 10 1003.5
20260506205623 80 68 3.0 4.0 0.00 0.01 0.01 10 1003.6
20260506204602 80 68 2.0 7.0 0.00 0.01 0.01 10 1003.4
20260506204052 81 90 3.0 7.0 0.00 0.01 0.01 10 1003.4
20260506203542 80 68 4.0 6.0 0.00 0.01 0.01 10 1003.6
20260506203039 79 90 2.0 4.0 0.00 0.01 0.01 10 1003.5
20260506202522 79 135 1.0 4.0 0.00 0.01 0.01 10 1003.5
20260506202011 80 135 1.0 2.0 0.00 0.01 0.01 10 1003.6
20260506200951 79 113 0.0 2.0 0.00 0.01 0.01 10 1003.7
20260506200441 80 135 0.0 2.0 0.00 0.01 0.01 10 1004.0
20260506195931 79 135 0.0 2.0 0.00 0.01 0.01 10 1004.0
20260506195420 78 135 1.0 4.0 0.00 0.01 0.01 10 1003.7
20260506194912 78 158 2.0 4.0 0.00 0.01 0.01 10 1003.7
20260506194401 80 158 2.0 8.0 0.00 0.01 0.01 10 1003.6
20260506193852 82 113 2.0 8.0 0.00 0.01 0.01 10 1003.4
20260506192830 81 90 4.0 8.0 0.00 0.01 0.01 10 1003.8
20260506191810 80 90 2.0 6.0 0.00 0.01 0.01 10 1004.2
20260506191259 80 113 1.0 6.0 0.00 0.01 0.01 10 1004.1
20260506190749 79 90 4.0 6.0 0.00 0.01 0.01 10 1003.8
20260506190239 79 90 2.0 6.0 0.00 0.01 0.01 10 1004.1
20260506185730 78 113 2.0 6.0 0.00 0.01 0.01 10 1003.8
20260506185220 77 113 2.0 4.0 0.00 0.01 0.01 10 1004.2
20260506184709 77 113 2.0 4.0 0.00 0.01 0.01 10 1004.4
20260506184200 77 113 4.0 4.0 0.00 0.01 0.01 10 1004.5
20260506183649 78 113 2.0 2.0 0.00 0.01 0.01 10 1004.8
20260506183139 78 113 0.0 4.0 0.00 0.01 0.01 10 1004.7
20260506182629 76 135 2.0 4.0 0.00 0.01 0.01 10 1004.8
20260506182118 75 113 2.0 4.0 0.00 0.01 0.01 10 1004.8
20260506181610 75 90 3.0 6.0 0.00 0.01 0.01 10 1004.9
20260506181101 75 113 2.0 6.0 0.00 0.01 0.01 10 1005.2
20260506180038 75 113 2.0 4.0 0.00 0.01 0.01 10 1005.5
20260506175529 74 135 3.0 6.0 0.00 0.01 0.01 10 1005.8
20260506175018 73 113 2.0 6.0 0.00 0.01 0.01 10 1005.6
20260506174514 73 113 4.0 6.0 0.00 0.01 0.01 10 1006.0
20260506173959 73 135 3.0 6.0 0.00 0.01 0.01 10 1006.2
20260506173447 74 113 3.0 7.0 0.00 0.01 0.01 10 1006.1
20260506172938 74 68 2.0 7.0 0.00 0.01 0.01 10 1006.2
20260506172428 74 68 3.0 9.0 0.00 0.01 0.01 10 1006.3
20260506171917 73 68 7.0 9.0 0.00 0.01 0.01 10 1006.4
20260506170857 74 23 4.0 9.0 0.00 0.01 0.01 10 1006.5
20260506170347 74 68 3.0 9.0 0.00 0.01 0.01 10 1006.7
20260506165837 73 68 7.0 9.0 0.00 0.01 0.01 10 1006.8
20260506165327 73 68 2.0 11.0 0.00 0.01 0.01 10 1006.9
20260506164816 72 68 4.0 11.0 0.00 0.01 0.01 10 1007.0
20260506164308 72 45 7.0 13.0 0.00 0.01 0.01 10 1006.8
20260506163757 72 68 5.0 13.0 0.00 0.01 0.01 10 1007.1
20260506162736 73 23 3.0 16.0 0.00 0.01 0.01 10 1007.2
20260506162226 72 45 5.0 13.0 0.00 0.01 0.01 10 1006.9
20260506161716 71 68 6.0 13.0 0.00 0.01 0.01 10 1007.4
20260506161207 72 45 6.0 17.0 0.00 0.01 0.01 10 1007.5
20260506160655 70 68 12.0 17.0 0.00 0.01 0.01 10 1007.2
20260506160146 71 90 7.0 15.0 0.00 0.01 0.01 10 1007.5
20260506155636 71 113 6.0 14.0 0.00 0.01 0.01 10 1007.7
20260506154616 70 68 9.0 15.0 0.00 0.01 0.01 10 1007.7
20260506153555 71 113 7.0 15.0 0.00 0.01 0.01 10 1008.1
20260506153045 70 45 9.0 15.0 0.00 0.01 0.01 10 1008.2
20260506152535 69 45 8.0 14.0 0.00 0.01 0.01 10 1008.2
20260506152025 69 90 7.0 14.0 0.00 0.01 0.01 10 1008.6
20260506151515 70 23 8.0 13.0 0.00 0.01 0.01 10 1008.8
20260506151005 70 45 4.0 13.0 0.00 0.01 0.01 10 1008.8
20260506150455 70 45 5.0 11.0 0.00 0.01 0.01 10 1009.1
20260506145943 70 23 6.0 16.0 0.00 0.01 0.01 10 1008.9
20260506144924 68 45 6.0 11.0 0.00 0.01 0.01 10 1009.4
20260506144414 68 45 4.0 11.0 0.00 0.01 0.01 10 1009.4
20260506143904 68 68 5.0 11.0 0.00 0.01 0.01 10 1009.5
20260506142846 67 68 1.0 8.0 0.00 0.01 0.01 10 1009.9
20260506142334 67 45 2.0 8.0 0.00 0.01 0.01 10 1009.9
20260506141824 67 45 3.0 8.0 0.00 0.01 0.01 10 1009.7
20260506141313 67 23 2.0 8.0 0.00 0.01 0.01 10 1010.2
20260506140803 67 45 2.0 8.0 0.00 0.01 0.01 10 1010.2
20260506135742 67 0 2.0 7.0 0.00 0.01 0.01 10 1010.2
20260506135233 66 0 1.0 2.0 0.00 0.01 0.01 10 1010.4